Location: Unspecified
(0.0000°N, 0.0000°E)
Time: 22:50:02
(UTC+00:00)

NTS 1 - Pass Details

Date: 16 June 2023
Orbit: 13478 x 13741 km, 124.8° (Epoch: 24 September)

Event Time Altitude Azimuth Distance (km) Brightness Sun altitude
Enters shadow 20:38:24 -1° 119° (ESE) 19,226 ? -35.6°
Exits shadow 21:04:46 13° 141° (SE) 17,705 ? -41.3°
Maximum altitude 21:31:46 19° 169° (S) 17,066 ? -46.9°
Drops below altitude 10° 22:04:01 10° 203° (SSW) 17,871 ? -53.3°
Sets 22:21:44 0° 217° (SW) 18,918 ? -56.5°
